Wind_Speed
2 3 3 3 3 2 2 2 2 2 2 2 2 2 3 3 3 3 3 2 3 3 3 3 3 3 3 3 3 3 3 3 4 4 4 5 6 6 6 6 6 6 6
4 4 4 4 4 4 3 3 3 3 3 3 3 3 3 3 3 4 4 3 4 4 4 4 4 5 4 4 4 4 4 4 5 5 5 6 7 7 7 7 7 7 7
4 4 4 5 4 4 4 4 5 4 4 5 4 4 4 4 4 4 4 4 4 5 5 5 5 6 5 5 5 5 5 6 6 5 5 5 6 7 7 8 8 8 8
5 5 5 5 5 5 6 5 5 6 6 5 5 5 5 5 5 6 5 5 5 6 6 6 6 7 7 7 7 7 7 7 7 6 7 7 7 8 8 8 9 10 9
5 5 6 6 6 6 6 6 6 6 6 6 5 6 6 5 5 6 6 6 6 6 6 7 7 8 8 8 7 7 7 7 7 8 8 8 8 9 9 9 9 10 10
6 6 6 6 6 6 6 6 6 6 6 6 6 6 6 6 6 6 6 6 6 6 6 6 7 7 8 8 8 8 8 8 8 8 8 9 9 8 9 10 10 11 11
6 7 6 6 6 6 6 6 7 7 6 6 6 6 6 6 7 7 7 7 7 7 7 7 8 8 8 9 9 9 9 9 9 9 9 10 10 10 10 11 11 12 12
7 7 7 7 7 6 6 6 6 6 6 7 7 7 7 7 7 7 8 8 8 8 8 8 8 8 9 9 9 9 10 11 11 11 11 11 11 11 11 11 12 12 13
6 7 6 6 7 7 7 7 7 6 6 6 7 7 7 7 7 8 8 8 9 9 9 9 9 9 9 9 10 10 10 11 11 11 11 11 11 11 12 12 13 13 13
6 6 6 6 7 7 7 7 7 7 7 7 7 6 6 7 7 7 8 8 8 9 9 10 10 10 10 10 10 10 11 11 11 11 12 12 12 12 13 13 13 14 13
6 6 6 6 6 7 7 7 7 8 7 7 6 6 7 7 7 7 8 8 8 9 10 10 11 10 10 10 11 11 11 12 12 12 12 12 12 12 13 13 14 14 14
6 6 6 6 6 7 7 7 8 8 7 8 8 7 7 7 7 8 8 8 9 10 10 10 10 11 10 10 11 11 12 12 13 13 13 12 12 12 13 13 13 13 14
6 6 6 6 6 7 7 7 7 7 8 8 8 8 8 8 8 8 9 10 10 10 11 11 11 11 11 11 12 12 13 13 13 13 13 13 13 13 13 13 14 13 13
6 6 6 7 7 7 7 7 6 7 7 8 8 8 8 9 9 9 9 10 10 10 11 11 12 12 12 13 13 13 13 13 13 14 13 13 13 13 13 14 14 14 14
6 6 6 7 7 8 7 7 7 7 7 7 8 8 9 9 10 9 9 9 10 11 11 11 12 12 13 13 14 14 14 14 14 14 14 13 13 13 13 14 14 14 15
7 7 7 8 8 8 7 7 7 7 8 8 8 9 9 9 10 10 10 10 11 11 12 12 12 12 13 14 14 14 14 14 14 14 14 13 13 13 13 13 13 14 14
7 8 8 8 8 8 8 8 8 8 8 9 9 10 10 10 10 11 11 12 12 12 12 13 13 13 14 14 14 14 14 14 14 15 15 14 14 13 13 13 13 13 14
8 9 8 8 8 8 8 8 8 8 9 9 10 10 11 11 12 12 13 13 13 13 13 13 14 14 14 14 14 14 14 13 13 14 15 15 15 15 14 13 13 13 13
9 9 9 8 9 9 9 9 9 9 9 10 10 11 12 12 12 13 13 14 14 14 14 14 14 14 14 14 14 14 14 14 14 14 15 15 15 15 15 14 14 13 13
10 10 10 10 10 9 9 10 9 9 10 11 11 12 12 13 13 13 14 15 15 15 15 15 15 15 15 14 14 15 15 14 14 14 15 15 15 15 15 15 14 13 13
11 11 11 11 11 11 11 11 11 11 12 12 12 13 13 13 14 14 14 14 14 15 15 16 15 15 15 14 14 15 14 14 14 15 15 14 14 15 16 15 15 14 14
12 12 12 11 12 12 12 12 12 13 13 13 14 14 14 14 15 15 15 15 15 15 16 15 15 15 15 14 14 14 14 14 15 15 15 15 15 15 15 15 15 16 15
13 13 13 13 13 13 13 13 13 13 13 14 14 14 15 15 15 15 15 16 16 15 15 15 14 14 14 14 14 14 14 14 15 15 15 15 15 15 15 15 15 15 15
14 14 14 14 14 14 14 14 14 14 14 15 15 15 15 16 16 16 16 17 16 15 15 14 14 14 14 14 14 14 15 15 15 14 15 15 16 15 15 15 16 15 15
15 15 15 15 15 15 15 15 15 15 15 15 16 16 16 16 16 16 16 16 16 15 15 15 14 14 14 14 14 14 15 15 15 15 15 16 16 16 16 16 16 15 15
15 15 15 16 16 16 16 16 15 15 16 16 16 17 17 17 17 17 17 16 16 15 15 15 15 15 14 14 14 15 15 16 16 16 16 17 17 17 17 17 16 16 15
Wind_Direction
235 230 227 236 248 252 254 259 273 275 265 256 270 263 242 249 229 226 234 240 240 236 230 224 227 236 240 244 258 260 253 242 239 252 253 250 240 238 240 242 240 242 237
248 241 236 241 249 252 259 262 265 270 272 270 271 268 256 254 243 236 242 243 236 235 241 241 238 241 247 256 261 261 262 254 251 255 259 252 236 236 241 240 242 244 246
248 249 247 250 260 265 267 267 264 266 268 273 274 267 270 264 255 242 245 247 243 246 247 244 245 247 250 256 257 261 259 253 252 255 261 252 236 236 240 241 241 243 248
246 248 250 256 263 268 270 268 266 265 263 267 273 270 271 268 254 252 247 251 252 251 250 249 250 253 253 254 254 256 257 257 255 253 258 258 247 245 243 242 244 246 250
251 254 255 258 263 269 269 268 268 265 261 261 266 267 267 265 259 254 248 252 250 250 250 253 254 255 254 253 252 254 257 262 261 257 260 258 255 251 244 243 249 251 254
254 252 254 256 259 265 268 268 263 262 263 261 262 262 260 257 257 258 256 254 251 252 253 252 254 256 253 252 255 255 255 257 259 259 260 261 258 251 248 248 253 256 256
258 254 252 253 255 258 267 269 266 265 264 262 259 258 257 262 263 260 257 255 255 254 254 256 258 257 257 257 257 255 255 257 260 261 262 263 261 256 254 255 255 257 256
260 258 253 250 251 257 262 263 267 265 262 260 259 258 258 259 262 259 258 260 261 260 259 260 261 259 260 258 257 256 257 260 261 263 264 263 262 261 255 255 253 256 256
260 257 252 251 253 256 258 261 264 264 264 263 259 261 263 261 260 261 264 266 264 261 262 264 266 265 263 261 259 259 258 260 261 263 263 261 260 260 258 259 256 258 259
260 258 256 254 255 256 259 260 262 261 260 261 262 265 268 264 262 262 265 269 269 267 266 267 268 268 266 263 262 263 263 263 264 264 264 265 262 262 263 261 260 260 262
258 256 255 256 259 262 263 262 264 263 261 261 265 271 270 267 264 265 267 270 270 270 270 270 270 268 266 264 262 262 262 261 263 264 264 266 266 268 269 266 264 264 262
257 256 257 258 261 263 265 268 268 265 265 267 268 273 273 268 265 265 268 270 271 272 273 274 272 270 269 267 265 265 264 262 261 262 262 264 267 268 268 268 265 264 262
261 260 258 262 265 268 273 273 268 267 265 265 266 268 272 270 269 268 270 272 273 273 274 274 272 271 270 270 268 268 267 265 262 261 263 265 267 267 267 268 267 265 262
265 265 262 266 268 273 276 275 272 270 269 269 269 271 272 274 273 271 274 278 278 276 276 276 273 271 270 269 269 270 270 269 266 264 262 264 265 265 265 266 265 264 264
267 267 265 266 271 275 273 273 273 272 275 274 274 275 277 276 275 276 280 281 280 279 279 279 278 273 271 268 268 267 267 268 266 262 261 263 265 265 265 264 265 263 263
265 267 267 268 272 272 270 271 273 274 275 274 274 276 279 278 278 280 283 283 281 280 279 280 279 278 274 272 271 269 268 267 264 262 260 262 266 267 265 266 266 265 265
266 270 270 270 270 271 271 272 275 276 276 275 273 274 276 278 278 281 283 283 282 282 281 282 282 281 280 278 277 275 271 265 264 260 260 263 264 266 267 266 267 266 265
268 273 272 271 273 276 278 276 276 278 280 279 275 274 275 276 278 281 283 284 284 283 282 283 282 280 280 278 277 274 270 262 261 260 259 260 262 265 266 267 267 268 265
268 273 273 272 274 277 278 278 276 275 276 277 276 274 274 275 279 281 283 283 284 282 281 281 281 279 279 277 276 274 272 269 266 265 261 260 261 263 264 264 264 265 264
268 270 271 273 274 277 280 278 277 276 279 279 278 275 274 276 278 280 283 282 282 283 282 280 281 280 279 278 278 276 272 269 267 266 265 263 262 263 262 261 260 259 261
266 266 269 268 272 276 278 279 280 281 281 282 281 279 279 281 282 283 284 285 286 285 284 282 281 280 280 279 277 276 273 270 267 267 266 264 263 261 260 260 259 257 259
266 266 269 270 273 274 277 278 282 283 284 286 285 284 283 284 284 284 285 284 283 282 283 283 281 280 279 278 277 274 272 271 270 268 265 263 261 262 261 258 258 256 257
265 266 270 273 276 278 280 282 284 285 286 286 286 286 284 285 286 284 284 282 282 283 283 282 282 281 280 279 276 274 272 271 269 266 264 265 265 264 261 259 259 259 258
268 268 270 272 276 280 282 284 284 284 285 285 286 288 287 288 287 286 284 283 282 281 280 281 281 281 280 276 274 271 269 270 267 265 264 265 264 264 261 260 259 259 258
270 270 270 273 276 277 279 280 282 282 282 283 285 286 287 289 288 287 287 284 282 280 278 279 279 280 280 276 275 272 270 270 270 267 264 263 263 261 259 258 257 256 257
269 268 269 271 274 276 276 278 281 283 282 282 283 284 286 286 286 286 286 284 283 280 279 277 278 278 279 277 276 276 273 271 269 267 266 262 261 261 259 259 259 257 257
Height
5879 5878 5878 5878 5878 5877 5877 5877 5877 5877 5877 5876 5876 5875 5875 5875 5875 5875 5875 5875 5875 5875 5875 5875 5875 5875 5875 5875 5875 5875 5875 5874 5874 5874 5873 5873 5872 5873 5874 5874 5874 5875 5875
5878 5877 5877 5877 5877 5876 5876 5876 5876 5876 5876 5876 5875 5875 5875 5875 5874 5874 5874 5874 5874 5874 5875 5874 5874 5874 5874 5874 5874 5874 5874 5874 5873 5873 5872 5870 5870 5871 5873 5873 5874 5874 5874
5877 5876 5876 5876 5876 5876 5875 5875 5875 5875 5875 5875 5874 5874 5874 5874 5873 5873 5874 5873 5873 5874 5874 5873 5873 5873 5873 5873 5873 5873 5873 5873 5872 5872 5871 5870 5869 5870 5872 5872 5872 5873 5873
5875 5875 5875 5875 5875 5875 5874 5874 5874 5874 5874 5874 5873 5873 5873 5873 5873 5872 5872 5872 5872 5872 5872 5872 5872 5872 5872 5872 5872 5872 5872 5871 5871 5871 5870 5870 5869 5870 5870 5871 5871 5871 5871
5874 5874 5874 5874 5874 5874 5873 5873 5873 5873 5873 5873 5872 5872 5872 5872 5871 5871 5871 5871 5871 5871 5871 5871 5871 5871 5871 5870 5870 5870 5870 5870 5869 5869 5869 5869 5868 5868 5868 5869 5869 5869 5870
5873 5873 5873 5873 5873 5872 5872 5872 5872 5872 5872 5871 5871 5871 5870 5870 5870 5870 5870 5870 5870 5870 5870 5869 5869 5869 5869 5869 5869 5869 5868 5868 5868 5868 5867 5867 5867 5866 5867 5867 5867 5868 5868
5872 5872 5872 5871 5871 5871 5871 5871 5870 5870 5870 5870 5870 5869 5869 5869 5869 5869 5869 5868 5868 5868 5868 5868 5868 5868 5868 5867 5867 5867 5867 5866 5866 5866 5866 5865 5865 5865 5865 5865 5865 5865 5865
5870 5870 5870 5870 5870 5869 5869 5869 5869 5869 5869 5868 5868 5868 5868 5868 5867 5867 5867 5867 5867 5867 5866 5866 5866 5866 5866 5866 5865 5865 5865 5865 5864 5864 5864 5863 5863 5863 5863 5862 5863 5863 5863
5869 5869 5869 5868 5868 5868 5868 5868 5868 5867 5867 5867 5867 5866 5866 5866 5866 5865 5865 5865 5865 5865 5864 5864 5864 5864 5864 5863 5863 5863 5863 5862 5862 5862 5861 5861 5861 5861 5860 5860 5860 5860 5860
5867 5867 5867 5867 5867 5866 5866 5866 5866 5866 5866 5865 5865 5865 5864 5864 5864 5864 5864 5863 5863 5862 5862 5862 5862 5862 5861 5861 5861 5861 5861 5860 5860 5859 5859 5859 5858 5858 5858 5858 5858 5857 5857
5866 5866 5866 5865 5865 5865 5865 5865 5864 5864 5864 5864 5864 5863 5863 5863 5862 5862 5861 5861 5861 5860 5860 5860 5860 5859 5859 5859 5858 5858 5858 5858 5857 5857 5856 5856 5856 5856 5855 5855 5855 5854 5854
5865 5864 5864 5864 5864 5864 5864 5863 5863 5863 5862 5862 5862 5862 5861 5861 5860 5860 5860 5859 5859 5858 5858 5858 5857 5857 5857 5856 5856 5856 5855 5855 5854 5854 5854 5854 5853 5853 5853 5852 5852 5851 5851
5863 5863 5863 5863 5863 5862 5862 5862 5861 5861 5861 5860 5860 5860 5859 5859 5858 5858 5858 5857 5857 5856 5856 5855 5855 5854 5854 5854 5853 5853 5852 5852 5852 5851 5851 5851 5851 5850 5850 5849 5849 5849 5848
5862 5862 5861 5861 5861 5861 5860 5860 5860 5859 5859 5859 5858 5858 5858 5857 5856 5856 5855 5855 5854 5854 5853 5852 5852 5852 5851 5851 5850 5850 5849 5849 5848 5848 5848 5848 5848 5847 5847 5847 5846 5846 5846
5860 5860 5860 5860 5859 5859 5859 5858 5858 5857 5857 5857 5856 5856 5855 5855 5854 5854 5853 5852 5852 5851 5850 5850 5849 5849 5848 5848 5847 5847 5846 5846 5845 5845 5845 5845 5844 5844 5844 5843 5843 5843 5843
5859 5859 5858 5858 5857 5857 5857 5856 5856 5856 5855 5855 5854 5854 5853 5853 5852 5851 5851 5850 5849 5849 5848 5847 5846 5846 5845 5844 5844 5843 5843 5842 5842 5842 5841 5841 5841 5841 5841 5840 5840 5840 5840
5857 5857 5856 5856 5855 5855 5855 5854 5854 5853 5853 5852 5852 5851 5851 5850 5849 5849 5848 5848 5847 5846 5845 5844 5844 5843 5842 5841 5840 5840 5839 5839 5838 5838 5838 5838 5838 5838 5837 5837 5837 5837 5837
5855 5855 5854 5854 5853 5853 5852 5852 5851 5851 5850 5850 5849 5849 5848 5847 5847 5846 5845 5845 5844 5843 5842 5841 5840 5839 5839 5838 5837 5837 5836 5835 5834 5834 5834 5835 5835 5835 5834 5834 5834 5834 5833
5853 5852 5852 5852 5851 5851 5850 5849 5849 5848 5848 5847 5846 5846 5845 5844 5844 5843 5842 5841 5840 5839 5839 5838 5837 5836 5835 5834 5833 5833 5832 5832 5831 5831 5831 5831 5831 5831 5831 5831 5831 5831 5830
5850 5850 5850 5849 5849 5848 5848 5847 5846 5846 5845 5844 5844 5843 5842 5841 5840 5840 5839 5838 5836 5836 5835 5834 5833 5832 5831 5830 5829 5829 5828 5828 5828 5827 5827 5827 5827 5827 5827 5828 5827 5827 5827
5847 5847 5847 5846 5846 5846 5845 5844 5844 5843 5842 5841 5840 5840 5839 5838 5837 5836 5835 5834 5832 5832 5830 5829 5828 5827 5827 5826 5825 5825 5824 5824 5823 5823 5823 5823 5823 5823 5823 5824 5824 5824 5824
5845 5844 5844 5844 5843 5843 5842 5841 5841 5840 5839 5838 5837 5836 5835 5834 5833 5832 5831 5830 5828 5827 5826 5825 5824 5823 5822 5821 5821 5821 5820 5820 5819 5819 5819 5819 5819 5819 5819 5819 5820 5820 5820
5842 5841 5841 5841 5840 5840 5839 5838 5837 5837 5836 5835 5834 5833 5832 5830 5829 5828 5827 5825 5824 5822 5821 5820 5819 5818 5817 5817 5816 5816 5816 5816 5815 5815 5814 5814 5814 5814 5815 5815 5816 5816 5816
5838 5838 5838 5837 5837 5836 5836 5835 5834 5833 5832 5831 5830 5829 5827 5826 5825 5823 5822 5820 5819 5818 5817 5816 5815 5814 5813 5812 5811 5811 5811 5811 5811 5811 5811 5810 5810 5810 5810 5811 5811 5811 5812
5834 5834 5834 5834 5834 5833 5832 5831 5830 5829 5828 5827 5826 5825 5823 5822 5820 5819 5817 5815 5814 5813 5812 5811 5810 5809 5808 5807 5807 5806 5806 5805 5805 5806 5806 5806 5806 5805 5806 5806 5807 5807 5808
5831 5831 5830 5830 5830 5829 5829 5828 5826 5825 5824 5823 5822 5820 5819 5817 5816 5814 5812 5811 5810 5809 5808 5807 5806 5805 5803 5803 5802 5801 5801 5800 5800 5800 5800 5800 5801 5801 5801 5801 5802 5802 5803